Zurück zum Katalog

STARLINK-35826

AktivKommunikationVLEO
NORAD 66375·PAYLOAD·🇺🇸 United States

Gestartet Nov 6, 2025 von Vandenberg Space Force Base

Loading…

Nächste Überflüge (nächste 24 Stunden)

TLE

AktuellSource: CelesTrak SupGP

Epoche: Sep 15, 2026, 03:29 UTC

1 66375C 25254AD  26258.14562500 -.00026201  00000+0 -77386-3 0  2585
2 66375  53.1593  68.4431 0001264  76.4430  82.0852 15.34413951    10

Verfolge STARLINK-35826 in Echtzeit mit AllMySat

Download on the App Store